Skip Page Navigation
NASA JPL Caltech
NASA Logo - Jet Propulsion Laboratory + View the NASA Portal
+ Near-Earth Object (NEO) Program
Search JPL
JPL Home Earth Solar System Stars & Galaxies Technology
JPL Solar System Dynamics
BODIES ORBITS EPHEMERIDES TOOLS PHYSICAL DATA DISCOVERY FAQ SITE MAP
JPL Small-Body Database Browser
Search: [ help ]  
79146 (1992 JP3)
Classification: Main-belt Asteroid          SPK-ID: 2079146
Ephemeris | Orbit Diagram | Orbital Elements | Physical Parameters | Discovery Circumstances ]

[ show orbit diagram ]
Orbital Elements at Epoch 2457000.5 (2014-Dec-09.0) TDB
Reference: JPL 7 (heliocentric ecliptic J2000)
 Element Value Uncertainty (1-sigma)   Units 
e .1732063036159859 1.3754e-07  
a 2.533205115709859 1.8329e-08 AU
q 2.094438021316648 3.5552e-07 AU
i 7.982170467448486 1.3461e-05 deg
node 42.1122342539848 5.3569e-05 deg
peri 198.789636814082 7.4219e-05 deg
M 208.6949561640139 4.8704e-05 deg
tp 2457619.449001134456
(2016-Aug-18.94900113)
0.00020326 JED
period 1472.664986964622
4.03
1.5983e-05
4.376e-08
d
yr
n .2444547831221361 2.6531e-09 deg/d
Q 2.971972210103069 2.1503e-08 AU
  Orbit Determination Parameters
   # obs. used (total)      555  
   data-arc span      8267 days (22.63 yr)  
   first obs. used      1992-05-02  
   last obs. used      2014-12-20  
   planetary ephem.      DE431  
   SB-pert. ephem.      SB431-BIG16  
   condition code      0  
   fit RMS      .56772  
   data source      ORB  
   producer      Otto Matic  
   solution date      2015-Jan-08 05:43:26  

Additional Information
 Earth MOID = 1.08565 AU 
 T_jup = 3.415 
[ show covariance matrix ]

Ephemeris | Orbit Diagram | Orbital Elements | Physical Parameters | Discovery Circumstances ]

Physical Parameter Table
Parameter Symbol Value Units Sigma Reference Notes
absolute magnitude H 15.3 mag n/a MPO272999  

79146 (1992 JP3)          Discovered 1992-May-02 by Debehogne, H. at La Silla (809)
Reference: 20040504/Numbers.arcLast Updated: 2004-07-16

Alternate Designations
 1992 JP3 = 1996 HV18 
Ephemeris | Orbit Diagram | Orbital Elements | Physical Parameters | Discovery Circumstances ]
ABOUT SSD CREDITS/AWARDS PRIVACY/COPYRIGHT GLOSSARY LINKS
FirstGov 2015-Jan-31 11:38 UT
(server date/time)  
NASA Home Page
Site Manager:   Donald K. Yeomans
Webmaster  Alan B. Chamberlin